Probability
19 23 23 19 16 16 23 23 26 29 29 26 26 23 23 19 19 13 19 19 19 29 19 23 23 10 6 6 10 13 13 10 6 0 0 0 0 0 0 0 3 6 6
16 23 29 29 29 29 32 26 29 23 29 32 23 13 19 19 19 16 10 13 13 19 32 19 16 13 10 10 10 6 6 6 6 3 0 0 0 0 3 0 3 6 3
19 26 26 26 32 32 32 39 29 35 35 39 39 32 19 16 19 19 16 13 19 26 29 19 16 16 13 16 16 13 10 10 6 6 0 0 0 0 0 0 0 0 0
19 16 16 23 23 32 39 42 48 52 39 39 39 39 23 23 19 13 13 13 19 29 29 16 16 16 16 19 13 23 19 13 10 10 0 0 0 0 0 0 0 0 0
16 13 16 29 29 45 45 45 52 58 52 45 35 35 26 26 19 29 26 16 23 29 32 32 19 29 26 29 29 16 19 19 16 13 13 6 3 0 0 0 0 0 0
16 13 16 29 39 48 61 58 55 58 48 48 48 35 29 39 42 45 42 39 35 29 32 39 29 29 29 26 32 29 26 19 19 16 16 10 6 6 3 0 0 3 0
16 16 19 29 35 45 61 68 65 61 61 55 52 55 52 45 48 42 42 45 39 32 26 29 35 39 35 39 26 23 23 19 19 13 13 3 0 0 0 0 0 0 0
26 23 26 29 32 42 55 65 65 61 71 61 58 58 52 48 48 55 45 42 42 42 39 32 35 35 32 39 29 26 23 23 23 23 16 10 6 6 3 3 3 3 3
26 26 35 32 35 42 55 61 61 61 74 68 61 52 58 55 55 55 55 45 42 45 42 35 39 35 32 32 29 29 26 23 23 26 23 19 16 10 6 3 3 3 3
19 23 35 35 32 32 45 58 58 65 65 68 71 58 58 55 55 52 55 55 45 42 52 52 42 35 35 35 26 29 26 23 23 19 19 16 16 13 6 6 3 3 3
23 16 23 26 26 29 39 58 61 65 68 68 61 58 58 58 55 55 52 48 39 42 48 42 42 29 29 26 26 26 26 19 16 16 16 13 13 10 6 6 3 3 3
16 19 23 23 29 29 45 52 65 65 68 65 58 58 58 55 55 58 52 52 48 42 45 42 39 29 29 26 23 19 19 19 13 16 13 10 13 6 6 3 3 3 3
13 16 23 26 29 29 32 45 52 61 65 52 58 61 61 58 55 52 48 52 52 48 42 39 39 35 29 23 23 23 23 16 13 13 13 6 6 3 6 6 6 3 6
13 13 23 23 23 29 29 35 45 55 55 52 52 48 48 55 55 48 52 48 48 45 39 39 35 32 26 26 26 23 23 16 13 13 13 10 6 6 6 6 6 6 6
19 26 19 19 19 23 32 42 45 52 52 52 48 48 48 52 48 48 48 48 45 39 39 39 32 29 29 29 26 23 19 16 16 10 10 6 10 6 3 6 3 3 3
19 23 19 19 23 32 35 48 52 52 45 48 48 48 52 52 48 42 45 45 42 39 39 39 32 29 26 23 19 16 16 13 13 13 10 10 10 10 6 6 3 3 6
23 23 19 29 29 32 35 42 45 45 45 45 45 48 48 52 45 42 42 35 35 39 39 35 32 26 19 13 13 13 10 10 13 10 10 6 6 6 6 3 0 0 0
26 29 29 29 26 29 32 32 32 39 42 45 45 48 52 52 48 42 39 32 32 35 35 32 29 26 23 13 13 3 10 13 10 10 6 6 3 3 3 6 6 0 0
29 26 29 32 32 39 39 42 35 39 39 52 52 42 45 48 42 42 35 32 32 32 29 29 29 26 16 13 10 3 10 10 6 6 6 3 3 3 3 3 3 6 0
35 42 39 39 39 35 39 39 39 39 39 42 45 42 48 48 42 39 32 32 32 26 26 26 26 26 16 10 0 3 10 10 0 3 3 3 3 3 3 3 3 6 3
45 45 45 42 39 35 35 35 35 39 39 39 42 42 35 35 39 32 32 29 29 26 26 29 23 23 13 3 3 0 6 6 3 3 3 3 3 0 0 0 3 3 3
42 48 42 35 42 39 39 39 32 32 35 35 42 35 32 32 26 23 23 23 26 23 23 29 19 10 10 0 0 0 0 3 3 3 0 0 0 0 0 0 0 0 0
39 45 42 39 35 39 35 32 32 32 35 39 35 35 35 26 23 19 16 23 19 23 23 23 19 10 3 0 0 0 0 0 0 0 0 0 0 0 0 0 0 0 0
39 39 35 32 32 39 35 35 32 35 35 35 35 35 29 29 23 19 19 16 13 16 23 26 19 16 3 3 0 0 0 0 0 0 0 0 0 0 0 0 0 0 0
32 32 35 32 32 39 35 39 32 32 32 32 29 23 26 26 16 13 6 10 10 10 13 16 16 13 10 3 3 0 0 0 0 0 0 0 0 0 0 0 0 0 0
32 32 29 32 32 39 39 35 32 32 29 29 23 23 19 13 13 10 6 3 3 3 3 3 3 3 3 3 0 0 0 0 0 0 0 0 0 0 0 0 0 0 0
Height
5923 5921 5920 5918 5917 5915 5913 5911 5909 5908 5906 5905 5903 5901 5899 5897 5895 5893 5892 5890 5889 5887 5886 5885 5884 5883 5882 5881 5881 5880 5879 5879 5878 5878 5877 5877 5877 5876 5876 5876 5876 5876 5876
5923 5922 5920 5919 5918 5916 5915 5913 5911 5909 5907 5906 5904 5902 5900 5898 5896 5894 5893 5891 5889 5887 5886 5885 5884 5883 5882 5881 5880 5880 5878 5878 5877 5877 5876 5876 5876 5875 5875 5875 5875 5875 5875
5923 5922 5921 5920 5918 5917 5915 5914 5912 5910 5908 5906 5904 5903 5901 5899 5897 5896 5894 5892 5890 5888 5887 5885 5884 5883 5882 5881 5880 5879 5878 5877 5877 5876 5876 5875 5876 5875 5874 5874 5874 5873 5873
5923 5922 5921 5920 5919 5917 5915 5914 5912 5910 5908 5907 5905 5903 5901 5900 5898 5896 5894 5893 5891 5889 5888 5885 5884 5883 5882 5881 5880 5878 5877 5877 5876 5875 5875 5875 5874 5873 5873 5873 5872 5872 5871
5923 5922 5920 5919 5918 5917 5915 5914 5912 5910 5909 5907 5905 5903 5902 5900 5898 5897 5895 5893 5892 5890 5888 5887 5885 5884 5882 5881 5879 5878 5877 5876 5875 5874 5874 5873 5872 5872 5871 5871 5870 5870 5869
5921 5921 5919 5918 5917 5916 5915 5913 5911 5910 5909 5907 5905 5904 5902 5900 5899 5897 5895 5894 5892 5890 5889 5887 5886 5884 5882 5880 5879 5877 5876 5875 5874 5873 5873 5872 5871 5871 5870 5869 5868 5867 5867
5919 5919 5918 5917 5915 5914 5913 5912 5911 5909 5908 5907 5905 5903 5901 5900 5898 5897 5895 5894 5892 5890 5889 5887 5885 5884 5882 5880 5878 5877 5876 5874 5873 5872 5871 5870 5869 5869 5868 5867 5866 5865 5864
5917 5916 5916 5915 5914 5913 5912 5911 5909 5908 5907 5906 5904 5903 5901 5899 5898 5897 5895 5893 5892 5890 5889 5887 5885 5883 5882 5880 5878 5876 5875 5873 5871 5870 5869 5868 5867 5866 5865 5865 5864 5863 5862
5914 5914 5913 5913 5912 5911 5910 5909 5908 5907 5906 5905 5903 5902 5900 5899 5897 5896 5895 5893 5891 5890 5888 5887 5885 5883 5881 5879 5877 5875 5874 5872 5870 5869 5867 5866 5865 5864 5863 5862 5861 5860 5859
5912 5911 5910 5910 5910 5909 5908 5907 5907 5906 5904 5903 5902 5901 5900 5899 5897 5895 5894 5892 5891 5889 5887 5886 5884 5882 5881 5879 5877 5874 5872 5871 5869 5867 5865 5864 5862 5861 5860 5859 5857 5856 5855
5908 5908 5907 5907 5907 5906 5906 5905 5905 5904 5903 5902 5901 5900 5899 5898 5896 5894 5893 5891 5890 5888 5886 5885 5883 5881 5879 5877 5875 5873 5871 5869 5867 5865 5863 5862 5860 5858 5857 5855 5854 5852 5851
5904 5904 5903 5903 5903 5903 5903 5902 5902 5902 5901 5900 5899 5898 5897 5896 5894 5893 5891 5890 5888 5886 5885 5883 5881 5880 5878 5876 5873 5871 5869 5867 5865 5862 5861 5859 5857 5855 5854 5852 5850 5848 5847
5900 5900 5900 5900 5900 5900 5900 5900 5900 5899 5899 5898 5897 5896 5895 5894 5892 5891 5889 5887 5886 5884 5882 5881 5879 5877 5875 5873 5871 5869 5866 5864 5861 5859 5857 5855 5853 5852 5850 5848 5846 5844 5843
5896 5896 5897 5897 5897 5897 5897 5897 5897 5897 5896 5895 5894 5893 5892 5891 5890 5888 5887 5885 5884 5882 5880 5878 5876 5875 5873 5870 5868 5866 5863 5861 5858 5856 5854 5852 5849 5848 5846 5844 5842 5840 5838
5892 5892 5893 5893 5893 5894 5894 5894 5894 5893 5893 5892 5891 5890 5889 5888 5886 5885 5884 5882 5881 5879 5877 5875 5873 5871 5869 5867 5864 5862 5860 5857 5855 5852 5850 5848 5845 5843 5841 5839 5837 5835 5833
5887 5888 5889 5889 5888 5888 5889 5890 5890 5889 5889 5888 5887 5887 5886 5884 5883 5882 5880 5879 5878 5876 5874 5872 5870 5868 5866 5863 5861 5858 5856 5853 5851 5849 5846 5844 5841 5839 5837 5835 5833 5831 5829
5882 5883 5883 5884 5884 5884 5884 5885 5885 5885 5884 5884 5883 5883 5882 5881 5879 5878 5877 5875 5874 5872 5870 5868 5866 5864 5862 5860 5857 5855 5852 5850 5847 5845 5842 5840 5837 5835 5833 5830 5828 5826 5824
5877 5877 5878 5879 5879 5879 5879 5880 5880 5880 5880 5879 5879 5878 5877 5876 5875 5874 5873 5871 5870 5868 5866 5864 5862 5860 5858 5856 5853 5851 5849 5846 5843 5841 5838 5836 5833 5830 5828 5826 5823 5821 5819
5871 5872 5872 5873 5873 5873 5874 5874 5874 5874 5874 5874 5873 5872 5872 5871 5870 5869 5868 5867 5865 5863 5862 5860 5857 5856 5854 5851 5849 5847 5845 5842 5839 5837 5834 5831 5828 5826 5823 5821 5818 5816 5813
5864 5865 5866 5867 5867 5867 5868 5868 5868 5868 5868 5868 5867 5867 5866 5865 5864 5863 5862 5861 5859 5858 5856 5854 5853 5851 5849 5847 5845 5842 5840 5838 5835 5832 5829 5826 5823 5821 5818 5816 5813 5811 5808
5858 5858 5859 5861 5861 5861 5861 5861 5862 5862 5862 5861 5861 5860 5859 5859 5858 5856 5856 5855 5853 5852 5851 5849 5847 5846 5844 5841 5839 5837 5835 5832 5830 5827 5824 5821 5818 5816 5813 5811 5808 5806 5803
5851 5852 5853 5854 5855 5854 5853 5854 5855 5855 5854 5854 5854 5853 5853 5852 5851 5850 5849 5848 5847 5846 5845 5843 5842 5840 5838 5836 5834 5831 5829 5827 5824 5821 5819 5816 5813 5810 5808 5805 5803 5800 5797
5844 5845 5846 5847 5848 5848 5847 5848 5848 5848 5847 5847 5847 5846 5845 5845 5844 5843 5842 5841 5840 5839 5838 5837 5836 5834 5832 5830 5828 5825 5824 5821 5818 5816 5813 5810 5807 5805 5802 5800 5797 5794 5792
5836 5838 5838 5839 5840 5840 5840 5840 5840 5840 5840 5840 5840 5839 5838 5838 5837 5836 5835 5834 5833 5832 5831 5830 5829 5828 5826 5825 5822 5820 5817 5814 5812 5810 5807 5804 5802 5799 5796 5794 5791 5788 5786
5829 5831 5832 5832 5832 5832 5832 5833 5832 5832 5832 5832 5832 5832 5831 5831 5830 5829 5828 5827 5826 5825 5825 5824 5822 5821 5820 5818 5817 5814 5812 5809 5807 5805 5802 5799 5796 5793 5790 5788 5785 5782 5779
5822 5823 5824 5825 5825 5825 5825 5825 5825 5825 5824 5824 5824 5824 5824 5823 5822 5822 5821 5820 5819 5818 5818 5817 5816 5814 5813 5812 5810 5808 5805 5803 5801 5798 5796 5793 5791 5788 5785 5782 5779 5776 5773
Wind_Speed
10 10 11 11 11 12 12 13 13 13 13 13 13 12 12 12 12 11 11 10 9 8 8 7 6 5 4 3 2 2 2 3 3 4 4 5 6 6 6 6 6 6 6
9 10 10 10 10 10 11 12 12 13 13 12 12 12 11 11 11 11 11 10 10 9 8 7 6 5 5 5 4 4 4 3 3 3 4 5 5 6 6 6 6 7 7
8 9 9 9 9 9 10 11 11 12 12 12 12 12 11 11 10 11 11 10 9 9 9 8 7 6 5 5 4 4 4 3 3 3 3 4 4 5 6 6 6 6 7
7 8 8 8 8 9 9 10 10 11 11 11 11 11 11 11 10 10 10 10 10 9 8 8 8 7 5 5 4 4 3 2 3 3 3 4 4 5 6 7 7 7 8
7 8 8 8 8 8 9 9 10 9 9 10 10 10 11 11 10 10 10 10 10 9 8 8 8 8 6 6 5 5 5 4 3 4 4 4 5 5 6 7 8 9 9
8 8 8 8 8 8 9 8 8 8 8 9 9 9 9 10 11 10 9 9 10 9 9 9 8 8 8 8 7 6 6 5 4 4 5 5 5 6 7 8 9 10 11
10 10 9 8 9 9 8 7 7 7 8 8 8 8 8 9 9 10 9 9 9 9 9 9 10 10 9 9 8 8 7 7 6 6 6 7 7 7 8 8 9 10 11
11 11 10 9 9 8 8 7 6 7 7 7 7 8 8 8 9 10 10 9 9 9 9 9 10 10 9 9 9 9 9 9 8 8 8 8 9 9 9 10 10 10 10
11 11 10 9 9 8 8 7 7 7 7 7 8 7 8 10 9 9 10 10 9 9 8 8 9 9 9 9 9 9 10 10 9 9 9 9 10 10 10 10 10 11 11
12 12 10 10 9 9 8 7 7 7 8 8 8 8 9 10 10 9 10 10 10 10 10 9 9 10 10 10 10 11 11 10 10 11 11 10 10 10 11 11 12 12 13
12 12 11 11 9 9 8 7 7 8 8 9 9 9 9 10 11 10 10 10 10 10 10 10 10 10 11 11 11 12 12 12 12 11 11 11 11 11 11 11 12 12 12
13 12 12 12 10 9 9 9 8 9 10 10 10 9 10 10 10 11 11 11 10 10 10 10 10 11 12 13 13 13 13 13 13 12 12 12 12 12 12 12 12 13 14
15 14 12 12 12 11 11 10 10 10 10 10 10 10 10 11 11 11 11 11 11 11 11 11 11 12 13 14 14 14 14 14 13 13 13 13 13 13 13 13 13 14 14
16 15 14 13 14 13 13 12 11 11 11 11 11 11 11 11 11 11 11 11 11 12 12 12 13 14 14 15 15 15 15 15 14 14 14 14 14 14 13 13 14 15 15
17 16 15 15 15 15 14 14 14 13 13 13 12 12 12 12 12 12 12 12 13 13 14 14 14 15 15 15 16 16 15 15 15 14 14 14 15 15 14 14 14 14 14
19 18 18 18 17 17 16 15 15 14 14 14 13 13 13 13 13 13 13 13 13 14 15 15 14 15 15 16 16 16 16 16 16 15 14 15 15 15 15 15 15 15 15
21 20 20 19 18 18 15 15 15 16 15 15 15 14 14 14 14 14 14 14 14 15 15 15 15 15 15 15 16 16 17 17 16 16 15 15 16 16 16 16 16 16 16
23 22 22 22 20 18 17 17 17 17 17 17 16 16 16 16 16 16 16 16 16 16 16 16 16 16 16 16 16 16 16 17 16 16 16 16 17 17 17 17 17 18 18
24 23 21 21 21 20 19 19 18 18 19 18 18 18 18 18 18 18 17 17 17 17 17 17 17 17 17 17 17 17 17 17 17 17 17 17 17 17 17 18 18 19 19
25 24 23 22 22 22 21 21 20 20 20 20 20 20 20 19 19 19 19 18 18 18 17 17 18 18 18 18 18 18 18 18 18 18 18 18 19 18 18 18 19 19 19
26 26 25 24 23 23 23 22 22 22 22 22 22 22 22 22 21 20 20 20 19 19 18 18 18 19 19 19 19 19 19 19 19 19 19 20 20 19 19 19 19 19 20
27 27 27 26 25 24 24 24 24 24 23 23 23 23 23 23 24 23 21 21 20 20 19 19 20 20 20 20 20 20 20 20 20 20 21 21 20 20 20 19 19 20 21
27 28 28 27 26 26 25 26 25 25 23 23 24 24 24 24 23 22 22 21 21 20 20 20 21 21 20 21 20 20 21 21 21 22 21 21 20 20 20 20 21 22 22
26 26 26 27 27 27 26 26 26 25 25 24 24 24 24 23 24 23 23 22 21 21 20 20 21 21 20 21 22 22 22 21 21 21 22 21 21 21 21 22 22 22 23
26 26 26 26 26 25 25 25 25 24 24 25 25 25 24 23 23 23 23 23 22 21 22 22 21 21 21 22 22 22 22 22 22 22 22 22 22 22 23 23 23 23 24
26 26 26 25 26 26 25 24 24 24 24 25 25 25 25 24 24 24 23 23 23 22 22 23 22 22 22 22 22 23 23 23 22 22 22 23 23 24 24 24 25 25 25
Wind_Direction
32 33 33 32 32 34 33 32 32 32 31 30 29 30 31 33 33 34 34 33 33 34 35 36 41 41 33 22 350 327 313 303 277 259 245 247 245 242 235 236 236 236 231
24 23 23 26 28 30 30 30 30 29 27 25 24 25 28 29 32 34 31 30 30 32 32 35 37 36 27 18 14 356 345 327 306 279 261 245 235 229 225 232 242 243 251
13 13 11 17 21 23 24 23 21 23 24 23 23 24 26 27 29 30 29 29 30 32 32 35 36 29 22 11 358 350 344 340 330 325 280 251 243 241 240 246 247 256 258
360 360 1 4 7 11 12 10 10 14 17 20 22 24 24 25 26 27 27 27 29 30 30 32 30 23 18 13 11 356 343 324 304 284 290 290 274 257 251 247 251 259 263
338 346 347 349 351 356 1 2 4 8 13 16 19 21 23 22 22 21 21 23 25 26 28 25 21 19 18 14 6 3 359 340 321 304 295 290 283 266 256 254 258 263 266
322 329 331 334 337 342 348 352 355 2 7 11 13 15 17 15 15 14 13 17 21 21 20 18 17 15 17 15 9 7 4 357 338 320 305 296 284 277 270 265 268 271 272
309 313 321 325 321 328 335 346 348 354 357 2 4 7 10 7 7 9 10 11 14 16 17 19 16 12 10 10 11 9 2 354 343 330 313 302 297 289 283 278 274 273 275
304 305 309 315 316 319 326 335 341 348 350 352 352 358 2 1 1 4 8 8 8 11 13 14 13 10 7 6 6 5 359 350 341 331 324 312 303 295 287 280 278 275 275
297 301 302 310 309 307 313 322 326 335 339 338 339 347 353 356 356 355 4 5 7 7 4 4 6 5 3 2 359 357 355 352 346 336 327 320 310 304 298 290 283 279 278
288 292 296 297 296 293 299 308 315 321 327 330 333 340 343 347 351 356 359 359 359 357 355 353 357 358 356 354 354 353 351 346 341 337 332 327 321 312 306 296 290 286 285
286 287 289 289 290 285 291 297 302 309 315 323 326 328 332 338 341 346 347 346 346 346 344 343 347 348 346 346 344 343 342 338 334 329 325 322 317 312 308 300 293 289 288
283 283 284 282 282 282 286 288 296 305 310 314 316 317 320 322 328 334 334 333 334 336 334 335 337 338 337 337 336 336 334 330 326 323 320 319 314 311 307 301 295 289 286
284 281 281 279 277 278 282 285 293 300 302 304 305 309 311 314 318 321 324 324 325 328 330 328 327 327 329 330 332 333 333 330 327 324 320 318 313 309 306 300 296 293 288
280 277 275 274 272 272 275 281 288 294 295 296 298 301 303 305 309 312 315 316 318 320 322 321 321 323 325 325 323 324 325 324 322 321 320 318 316 312 306 302 298 295 293
273 272 271 270 270 270 273 275 281 286 289 290 292 296 299 300 302 304 306 310 315 317 317 316 316 318 321 323 320 319 318 318 317 317 317 318 318 314 309 306 302 299 296
270 269 269 272 267 263 267 272 275 279 283 285 289 293 296 297 298 300 303 306 310 313 315 313 314 317 320 321 318 316 316 316 315 314 314 317 316 314 311 308 305 302 299
271 270 267 269 268 264 264 268 270 274 278 280 283 288 290 292 294 298 300 303 306 309 311 311 310 312 316 318 319 317 317 316 314 313 313 314 314 311 309 305 303 302 301
270 271 269 268 270 264 264 264 267 271 273 275 278 282 285 286 289 293 295 298 300 302 304 305 305 307 309 312 312 313 314 314 314 312 312 312 310 308 306 305 304 302 301
266 267 266 267 269 267 265 267 268 269 271 272 274 278 280 281 284 287 290 293 296 298 299 300 301 306 307 307 308 309 310 309 311 311 309 308 308 307 305 304 304 303 301
262 261 266 268 267 266 267 267 269 270 271 271 273 277 278 279 282 283 285 287 290 292 294 294 297 301 303 304 305 306 307 307 308 309 308 306 307 306 304 304 305 306 305
257 260 265 267 268 266 264 264 266 268 269 271 273 275 277 278 279 278 279 281 285 289 290 290 293 296 298 299 301 303 304 306 306 305 305 305 305 304 303 303 305 306 307
255 259 262 265 265 264 262 262 266 268 268 269 270 272 273 274 276 275 274 277 282 286 288 288 290 293 295 297 299 301 302 303 302 303 304 305 303 302 302 303 304 305 306
256 260 263 263 264 264 265 268 268 269 266 267 268 270 272 274 277 277 276 278 280 283 285 286 288 290 291 296 298 300 299 301 301 302 303 304 304 303 302 302 303 304 305
255 259 262 264 265 264 266 268 270 268 265 266 268 271 273 274 278 278 279 281 280 282 283 285 285 287 291 295 297 299 299 301 301 302 304 306 305 304 303 303 303 303 304
257 258 260 262 263 265 267 269 272 271 269 269 269 270 272 274 276 278 279 280 278 278 281 282 284 287 291 294 296 298 299 301 303 303 304 305 306 306 305 303 303 306 307
257 258 259 261 263 265 267 270 271 271 272 272 272 271 272 274 275 278 279 278 277 277 278 280 282 285 287 291 294 297 299 300 301 301 302 302 303 306 306 306 305 305 307